View from above orbital plane
|
View from above satellite
|
Ground track
|
The orbit data is extracted from the following two-line orbital elements,
1 31863U 07032B 21065.74065928 .00000239 00000-0 22768-3 0 9990
2 31863 45.8937 213.4689 4956393 155.0808 240.6608 5.52288138274537
Epoch (UTC): | 06 March 2021 17:46:32 |
Eccentricity: | 0.4956393 |
inclination: | 45.8937° |
perigee height: | 440 km |
apogee height: | 13842 km |
right ascension of ascending node: | 213.4689° |
argument of perigee: | 155.0808° |
revolutions per day: | 5.52288138 |
mean anomaly at epoch: | 240.6608° |
orbit number at epoch: | 27453 |
The dashed part of the orbit path shows where the satellite is in the earth's shadow,
|
|